GPS BIIR-8 (PRN 16)

Last updated on Wed Sep 09 2026 00:03:22 GMT+0000 (Coordinated Universal Time)

1 27663U 03005A 26250.88582483 -.00000001 00000+0 00000+0 0 9993 2 27663 54.8701 211.6853 0150050 53.5622 317.5042 2.00556009172976
UTC large
Height (km)
Speed (km/s)
/
Latitude / Longitude
Inclination (degrees)
Orbital Period (minutes)
Azimuth
Elevation
Range (km)
Doppler Factor

Next 0 passes for location: London (51.5072 / 0.1276)

No passes found over London.
GPS BIIR-8 (PRN 16)